Regional Weather Roundup
Issued by NWS

Home | Current Version | Previous Version | Text Only | Print | Product List | Glossary Off
Versions: 1 2 3 4 5 6 7 8 9 10 11 12 13 14 15 16 17 18 19 20 21 22 23 24 25 26 27 28 29 30 31 32 33 34 35 36 37 38 39 40 41 42 43 44 45 46 47 48 49 50

480
ASUS43 KOAX 271210
RWRNE

WEATHER ROUNDUP FOR NEBRASKA
NATIONAL WEATHER SERVICE OMAHA NE
700 AM CDT MON MAR 27 2017

NOTES: SATELLITE DATA IS BEING USED TO AUGMENT CLOUD COVER ABOVE
       12000 FEET.
       "FAIR" INDICATES FEW OR NO CLOUDS BELOW 12,000 FEET WITH NO
       SIGNIFICANT WEATHER AND/OR OBSTRUCTIONS TO VISIBILITY.

  * THESE STATIONS DO NOT REPORT WEATHER SUCH AS RAIN...SNOW OR FOG.

NEZ001>004-019>022-054>056-271300-
NEBRASKA PANHANDLE

CITY           SKY/WX    TMP DP  RH WIND       PRES   REMARKS
SCOTTSBLUFF    CLOUDY    25  22  88 CALM      29.91R
6HR MIN TEMP:  25; 6HR MAX TEMP:  33;

ALLIANCE       CLOUDY    23  22  96 CALM      29.90S
6HR MIN TEMP:  22; 6HR MAX TEMP:  33;

CHADRON        FOG       27  25  92 CALM      29.90S VSB 3/4
6HR MIN TEMP:  27; 6HR MAX TEMP:  38;

KIMBALL        CLEAR     29  29  99 W7        29.92S WCI  22
SIDNEY         CLEAR     23  21  92 W5        29.92F WCI  17
6HR MIN TEMP:  21; 6HR MAX TEMP:  33;

$$

NEZ057>060-069>072-079>082-271300-
SOUTHWEST NEBRASKA

CITY           SKY/WX    TMP DP  RH WIND       PRES   REMARKS
NORTH PLATTE   FOG       37  37 100 CALM      29.92R VSB 1/4
6HR MIN TEMP:  34; 6HR MAX TEMP:  45;

IMPERIAL       CLEAR     35  32  88 NW8       29.92R WCI  29
6HR MIN TEMP:  35; 6HR MAX TEMP:  41;

LEXINGTON      MIX PCPN  39  38  95 E5        29.94S VSB<1/4
MCCOOK         FOG       31  31 100 CALM      29.93R VSB 3/4
6HR MIN TEMP:  31; 6HR MAX TEMP:  42;

OGALLALA       CLEAR     32  31  96 W6        29.92R WCI  26
$$

NEZ005>010-023>029-035>040-094-271300-
NORTH CENTRAL NEBRASKA

CITY           SKY/WX    TMP DP  RH WIND       PRES   REMARKS
VALENTINE      CLOUDY    31  28  89 NW5       29.94R WCI  26
6HR MIN TEMP:  27; 6HR MAX TEMP:  35;

AINSWORTH      CLOUDY    36  36 100 W3        29.94R
BROKEN BOW     CLOUDY    41  32  70 SE3       29.93R HAZE
6HR MIN TEMP:  37; 6HR MAX TEMP:  43;

O`NEILL        CLOUDY    39  37  93 CALM      29.95S
ORD            CLOUDY    43  39  86 NE3       29.94R
6HR MIN TEMP:  41; 6HR MAX TEMP:  44;

THEDFORD       FOG       39  38  99 CALM      29.94R VSB 1/4
$$

NEZ041-046>049-061>064-073>077-083>087-271300-
SOUTH CENTRAL NEBRASKA

CITY           SKY/WX    TMP DP  RH WIND       PRES   REMARKS
GRAND ISLAND   CLOUDY    43  43 100 NE6       29.96R
6HR MIN TEMP:  43; 6HR MAX TEMP:  44;

AURORA         CLOUDY    42  42  99 N7        29.96R FOG
HASTINGS       CLOUDY    44  42  93 NE7       29.96R FOG
6HR MIN TEMP:  44; 6HR MAX TEMP:  45;

HEBRON         CLOUDY    44  43  96 N7        29.94R FOG
HOLDREGE       FOG       41  40  97 CALM      29.94S VSB 1/4
KEARNEY *      CLOUDY    43  39  87 CALM      29.96R
YORK           CLOUDY    41  41 100 N9        29.95R
$$

NEZ011>018-030>034-042>045-271300-
NORTHEAST NEBRASKA

CITY           SKY/WX    TMP DP  RH WIND       PRES   REMARKS
NORFOLK        CLOUDY    42  40  92 CALM      29.95R
6HR MIN TEMP:  42; 6HR MAX TEMP:  43;

ALBION         CLOUDY    44  40  88 CALM      29.96R
BLAIR          CLOUDY    43  41  92 N6        29.93S
FREMONT        CLOUDY    43  42  95 CALM      29.95R
TEKAMAH        CLOUDY    43  40  89 N3        29.95S
6HR MIN TEMP:  43; 6HR MAX TEMP:  45;

WAYNE          CLOUDY    41  40  99 CALM      29.95S
$$

NEZ050>053-065>068-078-088>093-271300-
SOUTHEAST NEBRASKA

CITY           SKY/WX    TMP DP  RH WIND       PRES   REMARKS
LINCOLN        CLOUDY    44  41  89 N9        29.95R
6HR MIN TEMP:  43; 6HR MAX TEMP:  45; 6HR PCP: TRACE;

OMAHA EPPLEY   CLOUDY    45  40  82 NE10      29.93F
6HR MIN TEMP:  45; 6HR MAX TEMP:  47; 6HR PCP: TRACE;

BEATRICE       CLOUDY    45  44  97 NE7       29.91S FOG
FALLS CITY     CLOUDY    46  43  89 N7        29.91R
6HR MIN TEMP:  46; 6HR MAX TEMP:  47;

NEBRASKA CITY  CLOUDY    44  43  95 NE8       29.91F
PLATTSMOUTH    CLOUDY    45  40  85 N6        29.92S
$$

NEZ044-045-051>053-067-271300-
OMAHA AREA

CITY           SKY/WX    TMP DP  RH WIND       PRES   REMARKS
OMAHA EPPLEY   CLOUDY    45  40  82 NE10      29.93F
6HR MIN TEMP:  45; 6HR MAX TEMP:  47; 6HR PCP: TRACE;

BLAIR          CLOUDY    43  41  92 N6        29.93S
FREMONT        CLOUDY    43  42  95 CALM      29.95R
MILLARD        CLOUDY    46  44  90 N3        29.93S
OFFUTT AFB     CLOUDY    45  41  85 N12       29.92F
PLATTSMOUTH    CLOUDY    45  40  85 N6        29.92S
WAHOO          CLOUDY    42  40  93 N7        29.94R
$$




USA.gov is the U.S. government's official web portal to all federal, state and local government web resources and services.